Location: Lombard
(41.8800°N, 88.0080°W)
Time: 23:12:42
(UTC-06:00)

Vanguard 2 - Visible Passes

Search period start: 29 January 2023 00:00
Search period end: 08 February 2023 00:00
Orbit: 554 x 2930 km, 32.9° (Epoch: 29 January)

Date Brightness Start Highest point End Pass type
(mag) Time Alt. Az. Time Alt. Az. Time Alt. Az.
29 Jan 10.7 02:09:16 37° ESE 02:09:16 37° ESE 02:16:12 10° ESE visible
29 Jan 10.2 04:10:35 43° SW 04:12:51 45° SSW 04:24:10 10° SE visible
29 Jan 10.8 06:12:43 10° W 06:21:16 18° SW 06:28:02 10° S visible
29 Jan 11.2 19:39:56 10° SSE 19:42:38 13° SSE 19:42:38 13° SSE visible
29 Jan 11.4 21:42:04 10° SSW 21:43:58 15° SSW 21:43:58 15° SSW visible
30 Jan 10.6 02:25:04 41° SE 02:25:04 41° SE 02:32:56 10° ESE visible
30 Jan 10.4 04:26:23 37° SW 04:29:21 39° SSW 04:40:19 10° SSE visible
30 Jan 11.1 06:32:08 10° WSW 06:37:19 13° SW 06:41:51 10° SSW visible
30 Jan 11.0 19:53:44 10° S 19:58:42 18° SSE 19:58:42 18° SSE visible
30 Jan 11.4 21:58:08 10° SW 22:00:03 16° SW 22:00:03 16° SW visible
31 Jan 11.7 00:39:35 11° E 00:39:35 11° E 00:39:58 10° E visible
31 Jan 10.5 02:40:54 43° SSE 02:40:54 43° SSE 02:49:32 10° ESE visible
31 Jan 10.5 04:42:14 30° WSW 04:45:43 33° SW 04:56:13 10° SSE visible
31 Jan 10.8 20:08:39 10° S 20:14:48 23° SSE 20:14:48 23° SSE visible
31 Jan 11.4 22:14:25 10° SW 22:16:08 16° SW 22:16:08 16° SW visible
01 Feb 11.6 00:55:27 14° ESE 00:55:27 14° ESE 00:56:49 10° ESE visible
01 Feb 10.5 02:56:47 43° SSE 02:56:47 43° SSE 03:06:01 10° SE visible
01 Feb 10.7 04:58:07 24° WSW 05:01:58 27° SW 05:11:44 10° S visible
01 Feb 10.7 20:24:07 10° SSW 20:30:53 28° S 20:30:53 28° S visible
01 Feb 11.4 22:30:52 10° SW 22:32:14 14° SW 22:32:14 14° SW visible
02 Feb 11.5 01:11:23 17° ESE 01:11:23 17° ESE 01:13:37 10° ESE visible
02 Feb 10.5 03:12:42 41° S 03:12:42 41° S 03:22:20 10° SE visible
02 Feb 10.9 05:14:02 18° WSW 05:18:08 20° SW 05:26:43 10° S visible
02 Feb 11.0 18:38:26 10° SSE 18:43:18 13° SE 18:45:38 12° ESE visible
02 Feb 10.6 20:39:56 10° SSW 20:46:58 33° S 20:46:58 33° S visible
02 Feb 11.5 22:47:28 10° WSW 22:48:19 13° WSW 22:48:19 13° WSW visible
03 Feb 11.4 01:27:20 19° ESE 01:27:20 19° ESE 01:30:20 10° ESE visible
03 Feb 10.6 03:28:40 37° S 03:28:40 37° S 03:38:25 10° SSE visible
03 Feb 11.1 05:30:00 13° WSW 05:34:12 15° SW 05:40:40 10° SSW visible
03 Feb 10.8 18:52:09 10° S 18:59:20 19° SE 19:01:42 18° ESE visible
03 Feb 10.5 20:56:02 10° SW 21:03:02 36° SSW 21:03:02 36° SSW visible
03 Feb 11.6 23:04:09 10° WSW 23:04:23 11° WSW 23:04:23 11° WSW visible
04 Feb 11.3 01:43:20 21° SE 01:43:20 21° SE 01:46:55 10° SE visible
04 Feb 10.7 03:44:40 32° SSW 03:44:40 32° SSW 03:54:12 10° SSE visible
04 Feb 10.6 19:07:05 10° S 19:15:27 25° SE 19:17:44 23° SE visible
04 Feb 10.5 21:12:21 10° SW 21:19:04 37° SSW 21:19:04 37° SSW visible
05 Feb 11.3 01:59:22 22° SE 01:59:22 22° SE 02:03:22 10° SE visible
05 Feb 10.9 04:00:42 26° SSW 04:00:42 26° SSW 04:09:37 10° S visible
05 Feb 10.3 19:22:37 10° SSW 19:31:39 31° SE 19:33:44 30° SE visible
05 Feb 10.5 21:28:48 10° WSW 21:35:05 37° SW 21:35:05 37° SW visible
06 Feb11.800:14:05ESE00:14:05ESE23:36:24Wvisible
06 Feb 11.3 02:15:25 22° SSE 02:15:25 22° SSE 02:19:36 10° SE visible
06 Feb 11.1 04:16:46 21° SW 04:16:46 21° SW 04:24:27 10° S visible
06 Feb 10.9 17:38:32 10° SE 17:40:31 11° SE 17:42:39 10° ESE visible
06 Feb 10.2 19:38:29 10° SSW 19:47:57 37° SSE 19:49:42 36° SE visible
06 Feb 10.6 21:45:23 10° WSW 21:51:02 34° SW 21:51:02 34° SW visible
07 Feb11.900:30:10ESE00:30:10ESE23:52:22Wvisible
07 Feb 11.3 02:31:30 21° SSE 02:31:30 21° SSE 02:35:35 10° SSE visible
07 Feb 11.3 04:32:50 15° SW 04:32:50 15° SW 04:38:15 10° SSW visible
07 Feb 10.6 17:51:17 10° SSE 17:56:32 16° SE 18:03:03 10° E visible
07 Feb 10.0 19:54:37 10° SW 20:04:23 43° SSE 20:05:38 42° SE visible
07 Feb 10.7 22:02:03 10° WSW 22:06:57 31° WSW 22:06:57 31° WSW visible
